Wind_Speed
45 41 39 40 40 38 35 33 34 32 28 27 26 24 22 19 18 18 16 15 12 10 9 8 5 2 4 6 8 9 8 6 6 7 9 11 12 12 12 13 14 15 15 15 16 18 20 22 22 20 18 16 14 12 11 11 12 13 11 10 10 10 9 8 7 6 6 6 7 8 9 10 11 11 11 12 13 14 14 14 15 15 15 16 17 17
47 45 45 46 45 42 39 36 34 33 30 28 29 27 24 22 21 19 18 16 14 12 10 8 6 2 3 5 8 9 8 6 7 8 9 10 10 11 12 14 15 16 16 17 19 21 22 20 19 17 16 14 12 11 10 11 12 12 10 8 9 9 8 7 5 4 4 5 6 7 8 10 10 10 11 12 13 13 13 14 14 14 15 16 17 18
50 50 51 50 48 45 42 38 36 34 31 29 30 29 27 26 24 21 20 18 16 13 11 9 7 4 3 6 8 9 8 7 7 8 9 11 13 14 15 16 17 17 18 20 21 22 21 19 18 16 15 14 12 12 12 12 13 12 9 8 9 9 8 6 4 3 2 3 5 6 8 9 10 11 11 12 13 13 13 13 14 14 15 16 17 18
52 54 54 52 50 47 44 42 39 36 32 30 31 31 31 30 27 24 22 20 18 14 12 10 8 6 4 6 8 8 8 8 9 10 11 13 14 14 15 14 15 17 18 20 21 21 21 20 19 18 16 15 14 13 14 14 13 12 10 9 10 9 8 6 5 2 1 2 4 6 8 9 10 11 12 12 13 13 13 13 14 14 15 16 17 18
53 55 55 53 51 50 48 45 42 38 36 33 32 33 34 33 31 28 24 22 20 16 13 12 10 8 6 6 8 9 10 10 11 12 13 13 12 12 12 11 12 14 16 17 18 18 18 19 18 17 16 14 13 13 14 14 13 12 11 10 10 9 8 7 5 3 1 2 4 6 8 9 10 11 12 13 13 13 13 14 14 15 15 16 17 18
51 55 55 54 53 52 51 48 45 43 40 37 34 35 37 36 34 32 27 23 21 18 17 15 12 9 8 7 8 10 11 12 13 15 15 14 13 12 11 10 11 12 13 15 16 16 16 16 15 15 14 13 12 13 13 13 12 11 11 11 10 9 8 6 5 4 3 4 5 7 9 10 11 12 13 13 13 13 13 14 14 15 16 17 18 19
46 51 53 54 55 54 52 51 49 47 44 40 40 41 40 38 37 35 30 26 23 22 21 18 14 11 9 9 9 11 12 13 15 17 17 16 15 13 12 12 12 11 13 15 16 15 15 16 16 15 15 14 13 14 14 13 12 11 10 10 9 8 7 6 5 4 4 5 7 9 10 11 12 13 14 14 14 14 14 14 15 16 16 18 19 20
38 43 48 53 55 54 53 53 53 51 46 45 47 45 41 40 40 38 34 29 25 25 24 20 16 13 11 12 10 10 13 15 18 18 18 17 16 15 15 14 14 13 13 15 16 16 16 16 17 16 14 13 13 13 13 13 12 11 10 10 9 8 7 7 6 6 6 7 8 10 11 13 14 15 15 15 14 14 15 15 15 16 17 18 19 20
32 36 41 46 51 53 54 55 56 54 48 50 52 47 43 43 43 41 37 32 28 26 24 22 19 15 14 14 12 11 13 17 19 20 19 18 17 17 16 16 16 15 15 15 15 16 16 16 16 15 13 13 12 12 12 11 11 10 10 10 9 9 8 7 7 7 7 8 9 11 13 14 15 16 16 16 16 15 15 16 16 16 17 18 19 20
28 32 34 38 44 49 54 57 57 55 52 55 55 49 47 45 45 44 39 36 31 25 24 25 22 18 17 16 13 13 16 18 18 19 20 20 20 19 19 18 18 17 17 16 16 16 16 17 16 15 14 13 13 13 13 13 12 11 11 11 10 9 8 8 8 8 8 9 10 12 14 15 16 17 17 18 18 17 17 17 17 17 18 18 19 21
28 26 28 33 38 43 50 54 57 56 55 58 57 52 50 48 47 46 42 40 34 23 23 27 26 23 21 18 16 17 20 19 18 19 22 23 22 22 21 20 20 19 18 17 17 17 18 18 17 16 14 14 14 15 15 15 14 14 14 13 12 11 10 10 10 9 10 10 11 13 15 16 17 18 18 19 19 19 18 18 18 19 19 19 20 21
27 24 26 30 33 37 42 47 53 57 58 59 58 55 53 51 50 48 44 43 35 26 26 30 30 27 24 22 22 22 23 22 21 22 23 24 24 23 22 22 20 20 19 18 19 20 20 19 18 16 15 16 16 16 16 16 16 15 15 14 14 13 13 12 12 11 11 11 13 14 16 17 18 19 20 20 21 21 20 20 20 20 20 20 21 22
28 27 27 27 29 34 37 41 48 54 58 60 59 58 56 53 52 49 46 45 38 33 34 35 34 31 27 27 28 27 26 25 24 25 24 24 25 24 24 23 22 21 20 20 21 21 21 20 18 17 16 17 17 17 18 17 17 16 15 15 15 15 15 15 13 12 12 12 14 15 17 18 19 20 21 22 22 22 22 22 22 21 22 22 23 24
32 31 30 28 30 33 34 37 41 47 55 59 61 60 58 57 54 50 49 49 44 40 42 42 37 33 30 31 32 32 31 29 27 26 25 25 25 25 26 25 24 23 22 22 23 23 23 21 20 19 18 19 19 19 20 19 18 17 17 17 17 16 17 16 16 14 13 13 14 16 17 18 20 21 22 23 23 23 23 23 23 23 23 23 24 25
35 34 34 33 33 33 31 33 38 42 47 52 59 62 61 58 55 52 53 53 50 46 47 46 38 32 32 35 36 37 34 31 29 27 25 25 25 26 27 26 27 27 26 26 26 25 24 22 21 21 21 21 21 21 22 22 21 19 18 19 19 18 18 17 17 17 16 16 16 17 18 19 20 22 24 24 24 25 25 24 24 24 24 25 25 27
36 36 39 37 34 33 31 33 36 38 40 45 52 58 59 59 57 57 58 57 56 52 49 46 39 34 36 38 39 38 36 34 31 29 28 27 27 28 28 28 29 29 29 29 29 28 26 24 24 24 24 24 24 23 23 23 22 21 20 20 20 20 19 19 19 19 20 19 18 18 18 19 21 23 24 25 26 26 27 27 26 26 26 27 27 28
37 38 42 38 34 34 34 34 35 34 37 40 44 50 56 61 63 62 60 59 59 55 49 47 44 40 39 39 40 39 39 38 34 32 32 31 31 31 31 32 32 31 31 31 30 29 27 26 26 26 26 26 26 25 24 23 23 24 23 22 22 22 22 21 20 21 22 22 21 19 19 20 22 24 25 26 27 28 29 29 28 28 28 29 29 30
39 40 43 39 35 36 37 36 35 33 34 35 39 44 51 58 62 62 61 60 59 55 51 49 48 46 42 40 41 41 41 41 37 35 35 35 34 34 34 35 33 32 33 33 31 29 29 28 28 28 28 28 28 27 26 25 26 26 26 25 24 24 24 23 23 23 24 24 23 22 21 22 22 24 26 27 28 29 30 31 31 30 30 31 31 32
42 41 43 42 39 39 39 36 35 34 34 34 38 43 47 50 54 59 61 61 60 58 56 53 51 50 47 44 45 44 44 44 42 39 39 39 38 37 38 38 36 34 34 35 34 32 31 30 29 29 29 29 30 29 28 28 29 29 28 27 27 26 26 25 25 25 26 26 26 25 24 23 24 25 27 29 30 31 32 33 33 33 33 33 34 34
47 44 44 45 43 42 39 34 33 35 37 37 38 41 44 45 48 53 58 61 62 62 60 58 55 53 51 50 50 48 47 47 46 44 43 43 42 40 41 40 39 37 37 36 36 35 34 32 30 30 30 31 31 30 30 30 30 30 29 29 30 29 29 28 28 28 28 28 28 27 26 25 25 26 28 30 31 32 34 35 35 35 35 35 36 37
51 47 45 47 48 43 38 35 36 38 40 39 39 40 42 45 46 49 52 56 61 63 62 61 59 55 54 55 54 51 50 51 49 47 47 47 45 43 43 43 42 41 40 39 38 37 35 34 32 32 32 33 33 32 32 32 31 31 32 31 32 31 31 31 31 31 31 31 30 29 29 28 27 28 29 30 32 34 35 36 37 37 37 38 39 39
55 52 50 51 49 44 40 41 41 40 40 41 41 41 42 44 45 45 46 50 55 60 63 64 61 58 58 60 58 54 53 53 52 51 50 50 48 47 46 45 44 44 44 42 41 39 37 36 36 35 34 34 34 35 34 33 33 33 33 33 33 33 33 33 33 34 33 33 33 32 30 30 30 30 31 32 33 35 37 38 39 39 39 40 41 42
61 58 54 53 51 48 46 46 43 42 41 41 41 42 43 42 41 42 43 46 51 55 60 64 63 60 61 63 61 58 56 56 56 55 53 52 51 49 48 47 46 46 47 46 44 42 40 40 39 38 37 36 36 37 36 35 35 35 34 34 34 35 34 34 35 35 35 35 35 34 33 32 32 32 33 34 36 37 39 41 42 42 43 43 43 44
67 62 56 54 54 53 51 49 47 45 43 40 39 42 44 40 39 42 43 45 48 49 53 59 61 61 65 68 66 63 61 60 60 58 56 54 53 51 50 50 49 49 50 49 48 46 45 44 43 41 40 39 39 39 38 38 38 37 36 36 36 36 36 36 36 36 36 35 35 35 35 35 36 36 36 37 38 39 40 42 44 45 45 45 46 46
70 64 60 58 57 56 53 51 49 47 45 42 42 45 47 44 42 42 44 46 46 46 50 54 56 60 67 72 70 67 65 64 63 62 61 58 56 54 54 53 52 52 53 53 51 50 49 47 46 45 44 43 42 41 41 40 40 40 40 39 39 39 38 37 37 38 37 37 37 37 38 39 39 40 40 40 40 41 42 43 45 46 47 48 48 48
72 67 65 62 58 57 56 54 52 52 50 48 47 48 49 49 45 42 45 47 44 44 48 49 49 55 63 70 72 70 69 69 67 65 64 62 60 58 56 56 55 56 57 56 53 52 52 50 48 47 46 46 46 44 43 43 43 43 43 42 41 40 39 39 40 40 40 40 40 40 41 41 42 42 43 42 42 42 44 45 46 47 48 49 50 51
75 71 68 64 61 59 59 60 60 60 58 55 52 51 51 52 49 44 43 44 42 44 47 45 45 49 55 62 69 72 73 73 72 70 67 66 64 62 60 59 58 58 58 57 55 54 54 52 50 49 48 48 48 46 45 45 46 46 45 44 43 42 41 41 42 42 42 42 43 43 43 43 44 44 45 44 44 44 45 47 48 49 50 51 52 52
78 75 71 67 65 63 63 65 66 65 63 60 57 55 53 54 53 47 40 38 42 47 45 44 45 46 48 55 62 69 75 77 76 74 71 69 68 66 64 63 62 61 60 58 55 54 56 55 52 51 50 50 50 48 47 47 47 47 46 46 46 44 43 43 44 45 45 44 45 45 45 45 45 46 47 46 45 45 46 48 49 50 52 53 53 54
82 78 73 71 69 67 67 68 68 68 66 64 62 59 56 55 55 51 43 38 42 45 43 45 48 45 45 50 54 60 69 76 79 77 74 71 70 69 67 66 65 63 60 57 56 56 57 57 55 54 53 52 51 50 49 48 48 48 48 47 47 47 46 45 46 47 46 46 47 48 47 47 47 48 49 48 47 47 48 49 50 52 53 54 54 54
86 80 77 77 74 72 71 71 71 72 70 67 65 62 59 56 55 54 51 45 41 41 42 46 48 45 44 48 49 51 58 66 74 77 76 75 73 71 69 69 68 65 62 60 59 59 59 59 57 57 56 55 54 53 52 51 51 51 49 48 48 48 48 47 47 48 48 48 48 49 49 49 49 50 51 50 49 49 49 50 51 53 53 54 55 55
90 84 82 82 80 77 75 73 74 74 73 72 69 65 60 58 56 55 56 52 44 40 42 45 45 43 43 46 47 48 50 55 62 70 75 77 76 73 71 70 70 68 66 64 62 61 62 61 60 59 58 58 57 57 56 54 54 53 52 51 50 51 51 49 48 48 50 49 49 48 49 51 52 52 53 52 50 49 50 51 52 53 54 55 56 57
95 89 87 87 86 82 78 77 77 75 77 78 72 65 61 59 57 55 56 56 52 47 45 43 42 42 44 45 45 46 47 49 53 60 67 73 76 75 73 73 72 71 70 68 65 65 66 65 64 63 62 61 60 59 58 58 57 56 55 55 54 54 53 51 50 51 51 51 50 49 50 51 53 53 52 51 50 50 51 52 54 55 57 58 58 59
99 95 92 92 90 86 82 81 79 79 83 79 67 63 63 61 57 57 58 59 59 57 51 42 40 44 46 45 44 44 45 46 49 54 58 64 71 73 75 76 76 74 73 72 70 70 69 69 68 67 66 65 64 61 60 60 59 59 58 58 57 55 54 54 54 53 52 52 52 51 51 51 52 53 52 52 52 52 53 55 57 58 59 60 60 61
105 100 98 96 94 90 87 85 85 86 84 73 64 66 68 63 60 60 61 61 62 62 57 47 43 44 44 43 42 42 43 44 47 51 54 57 62 67 72 77 80 79 77 76 75 74 72 72 72 71 70 68 67 65 64 62 61 61 61 61 59 57 56 57 57 55 54 55 55 54 53 53 54 55 56 57 57 57 57 59 60 61 61 62 63 63
109 106 103 100 97 95 92 90 91 89 80 70 68 72 71 68 67 66 63 63 64 62 57 50 44 41 39 40 40 40 42 44 46 50 54 55 55 58 63 70 77 81 80 78 78 77 76 75 76 75 74 73 71 69 68 66 64 63 63 62 61 60 59 59 58 56 56 56 56 56 57 57 58 59 60 61 61 61 61 62 63 63 63 64 66 66
114 112 109 105 102 100 97 96 95 88 78 73 73 73 72 74 74 71 67 64 62 59 55 52 48 43 40 38 37 38 42 44 46 48 52 54 54 53 54 60 68 75 78 79 80 80 79 79 79 78 77 76 74 73 72 70 68 66 65 64 64 63 61 60 59 57 57 57 58 60 61 62 62 63 64 65 65 65 66 65 66 66 66 67 68 69
118 117 114 110 107 105 102 100 96 89 83 79 75 73 75 77 76 74 71 66 62 59 56 55 55 51 46 41 39 41 45 47 47 47 49 53 55 54 53 55 60 66 71 76 80 83 82 81 81 81 79 78 77 76 75 74 72 70 68 67 66 65 64 62 60 59 60 61 63 64 65 65 66 66 67 69 69 69 69 68 68 68 69 70 71 71
121 120 117 114 111 108 106 103 99 93 88 82 76 75 77 78 78 77 74 69 65 61 56 54 54 52 49 47 45 45 50 52 51 48 47 51 55 56 56 56 57 60 65 69 74 80 82 81 82 83 82 81 80 79 78 76 75 74 72 70 68 67 66 63 62 62 63 64 66 67 67 68 69 69 70 71 71 70 69 70 71 72 71 72 72 72
123 122 120 116 114 111 109 106 102 96 90 84 80 80 80 81 80 79 77 73 68 61 55 53 52 51 50 49 48 49 52 53 51 49 48 49 53 57 59 58 58 58 60 62 67 72 78 81 84 86 85 83 82 81 80 80 79 77 74 73 71 69 67 65 65 65 65 66 69 70 71 72 73 73 73 72 72 72 73 75 76 75 74 74 74 73
125 124 123 119 117 115 113 109 104 100 94 89 86 84 84 83 81 79 79 75 67 61 58 56 55 55 53 52 51 52 52 52 51 51 51 51 53 57 60 61 59 58 57 58 61 66 71 76 80 84 84 84 83 83 83 84 83 80 77 75 73 71 68 67 67 68 68 70 73 75 76 76 76 76 75 75 75 76 78 80 80 78 76 75 75 75
128 128 126 123 120 118 117 113 108 104 99 95 92 90 87 85 83 81 79 74 67 64 64 62 60 59 56 54 53 53 52 52 53 53 53 53 53 55 59 60 60 60 59 59 60 61 64 67 72 76 80 82 84 85 86 86 85 82 79 77 76 73 70 69 70 72 74 76 77 79 80 79 79 79 79 79 79 80 81 82 83 81 78 77 77 76
130 129 128 125 121 119 120 116 110 106 102 98 96 94 91 86 83 81 79 74 69 68 67 66 64 62 59 56 54 54 54 54 54 55 55 55 54 55 58 59 59 60 60 61 61 61 61 62 64 68 73 78 82 85 87 87 86 84 81 80 78 75 73 73 75 77 78 79 80 80 81 81 81 82 82 83 83 83 84 85 85 83 81 79 78 76
130 129 128 125 121 121 123 119 112 107 105 102 99 96 92 87 83 80 78 74 72 71 70 69 68 66 62 59 57 57 57 56 55 55 56 56 56 56 58 59 59 59 59 60 61 61 62 62 62 63 66 70 73 77 80 82 84 84 84 82 79 77 76 77 79 79 79 79 80 81 81 82 83 84 85 86 86 87 87 87 86 85 82 80 78 77
127 126 125 124 123 123 124 120 112 106 103 101 99 97 93 88 83 79 78 77 74 73 73 72 71 67 64 62 62 61 60 57 55 54 56 56 56 56 57 59 60 59 59 60 60 61 62 63 63 62 61 62 64 65 68 72 75 79 81 80 78 76 78 79 79 79 78 79 80 80 81 81 83 86 87 88 89 90 90 89 88 87 84 82 80 77
123 123 123 123 123 123 123 117 108 107 107 102 98 97 93 87 82 78 76 76 75 73 73 72 71 69 67 66 65 63 62 58 54 53 53 54 54 54 55 58 60 60 59 60 60 60 61 61 62 61 60 59 59 59 61 63 65 69 71 71 71 74 77 79 79 78 79 79 79 78 79 81 83 86 89 91 91 91 91 91 90 87 85 83 80 76
118 119 120 121 121 122 121 108 93 91 95 93 91 94 92 87 83 80 78 77 75 73 73 72 71 70 71 70 69 66 62 57 54 53 54 54 54 54 54 57 59 60 59 60 60 60 60 60 60 59 59 58 57 57 57 58 59 61 62 62 66 72 76 76 76 77 78 76 72 70 71 76 81 86 89 90 91 92 92 91 88 86 84 81 78 74
113 114 115 117 119 119 119 112 97 88 84 78 75 80 84 84 83 79 76 76 76 75 74 74 74 73 73 73 71 67 62 57 53 53 54 55 55 55 55 56 58 58 59 59 58 57 57 56 56 57 58 57 55 54 54 54 54 55 58 61 65 69 71 70 71 72 72 68 65 63 64 67 73 80 84 87 89 91 91 90 86 83 81 77 74 70
110 111 112 114 115 114 115 109 91 78 78 81 79 77 77 79 80 75 69 72 76 76 75 75 74 74 74 73 71 68 64 59 55 52 52 52 53 54 56 57 57 57 57 57 55 55 54 54 53 55 56 55 53 53 53 52 52 52 55 58 61 62 64 65 63 62 64 66 70 73 72 70 70 73 77 82 85 87 87 86 82 76 73 72 69 66
108 109 110 111 111 112 113 99 71 52 57 75 85 85 80 78 75 69 66 69 72 73 74 74 74 73 72 71 69 67 64 59 54 52 51 50 51 53 55 56 57 57 56 56 55 54 54 53 53 53 53 52 51 51 51 52 51 48 47 49 50 53 57 61 60 59 62 69 76 79 81 80 78 76 78 82 83 83 81 77 71 67 66 66 64 62
105 107 109 109 108 109 111 102 84 67 60 63 73 82 85 83 77 70 68 71 72 69 68 69 69 68 69 69 67 66 63 58 54 52 52 51 50 51 52 55 57 58 57 56 55 54 52 51 51 52 51 50 49 50 49 49 46 42 39 40 42 44 50 56 59 58 59 65 70 73 77 81 79 74 74 77 75 71 68 64 60 59 58 56 56 57
100 104 107 108 107 107 106 102 97 87 73 65 68 75 78 78 76 72 69 71 74 72 66 62 59 59 61 64 65 64 61 58 54 53 53 53 52 51 52 54 56 58 57 56 55 53 51 50 51 50 49 49 49 47 44 41 39 36 35 37 39 39 41 44 44 42 42 49 58 63 68 72 67 61 64 70 68 63 61 59 57 56 53 52 54 57
Wind_Direction
251 250 249 247 246 246 244 245 251 257 260 263 264 262 262 262 263 267 271 278 288 295 303 315 329 304 223 207 194 203 210 214 234 243 240 235 231 226 214 199 191 183 171 167 169 173 175 176 174 168 162 157 154 153 151 151 153 148 140 138 138 136 131 124 114 94 73 55 39 27 19 14 11 10 11 13 14 11 8 9 11 12 11 9 9 9
250 248 246 245 246 247 245 243 246 251 255 259 262 262 262 260 259 259 263 268 275 283 291 302 317 318 210 198 186 186 194 202 223 234 225 210 196 190 184 174 166 163 162 162 166 169 171 172 169 164 160 158 156 157 157 158 160 158 150 145 147 144 138 135 126 103 74 48 30 19 12 7 5 3 4 8 9 9 7 6 8 9 8 7 7 7
248 247 247 247 248 248 248 246 244 247 250 254 260 262 260 258 255 253 255 258 263 270 281 289 302 301 205 188 180 173 178 195 210 208 188 170 162 160 159 156 153 152 156 160 165 169 170 170 168 167 166 165 165 166 167 167 168 168 165 159 157 154 149 149 148 128 77 35 18 11 5 1 359 356 357 2 3 4 4 3 4 4 4 3 3 3
246 246 247 248 249 250 249 248 245 245 247 250 254 257 257 256 254 250 247 248 251 256 268 277 281 278 228 188 176 170 177 194 203 190 170 160 158 157 156 156 154 154 160 165 171 175 175 176 178 178 177 176 178 177 174 173 172 173 174 170 165 163 162 166 170 169 121 10 359 357 357 355 352 350 352 355 356 358 359 358 359 359 358 358 358 359
245 246 247 248 248 249 248 248 247 244 242 244 249 252 254 254 253 250 243 241 245 247 254 262 263 263 248 206 181 182 191 199 201 191 179 172 170 168 164 164 164 164 170 176 182 188 190 190 190 189 188 188 188 183 178 177 176 177 176 173 171 170 175 179 189 207 251 324 337 341 345 346 344 344 345 348 350 350 352 353 354 354 353 353 354 355
246 245 246 246 246 246 247 247 246 244 240 239 242 246 248 250 252 250 244 237 237 240 243 245 250 255 255 232 200 195 199 204 207 202 195 190 186 183 179 180 182 180 183 188 193 200 206 205 200 198 199 200 196 188 183 182 181 180 178 177 177 179 186 194 208 232 269 304 318 328 334 338 339 339 339 342 344 343 345 347 348 348 349 349 350 352
247 246 245 244 244 244 245 246 245 244 242 238 238 240 243 246 249 249 246 237 230 232 235 235 239 245 249 242 218 205 203 205 211 209 207 205 200 196 195 197 202 198 192 195 200 205 210 212 206 205 208 205 198 191 187 187 188 188 186 185 188 191 197 207 225 250 278 298 309 319 326 331 333 333 335 337 339 337 338 341 342 344 345 345 346 348
251 249 247 244 244 243 243 244 244 243 242 239 237 236 239 243 246 247 245 239 229 226 231 230 229 234 244 243 230 216 211 209 212 213 216 216 211 210 210 209 212 213 206 201 205 210 211 213 213 212 213 208 201 195 193 194 194 195 196 196 199 202 211 222 238 259 277 293 306 315 321 326 329 329 329 332 333 333 332 335 338 340 342 343 343 344
257 254 251 247 245 243 242 242 243 243 241 240 238 235 236 240 243 245 245 242 234 224 227 230 225 226 239 240 232 227 222 217 216 216 221 224 222 222 220 217 219 220 218 211 210 214 215 216 216 215 214 209 203 202 205 209 208 209 210 209 210 211 219 234 249 264 279 293 303 311 316 320 323 324 325 327 329 328 327 329 333 336 338 340 340 340
264 259 257 254 249 245 242 242 242 242 240 240 240 237 235 237 241 244 244 245 239 225 225 231 225 221 230 234 230 232 229 224 221 220 223 227 226 226 225 223 224 223 221 220 218 217 218 218 217 215 212 207 205 207 212 218 220 220 221 222 224 225 230 242 256 270 282 292 299 306 311 313 317 320 321 323 324 324 323 324 329 333 335 337 337 337
271 269 265 260 255 249 245 243 242 242 240 241 242 240 236 235 238 241 243 244 240 227 226 232 227 220 222 229 229 231 230 225 223 222 223 227 225 224 225 226 227 226 223 223 223 223 221 220 218 214 210 209 209 211 215 219 220 221 223 225 228 233 237 243 252 266 278 287 294 299 304 309 313 316 317 320 321 321 320 321 324 329 332 334 334 335
277 278 271 265 262 258 252 247 243 241 240 241 242 241 238 235 235 237 240 243 241 236 234 233 229 221 217 225 227 229 230 224 222 222 220 223 224 221 223 226 228 228 227 224 224 225 223 222 221 217 215 215 215 216 220 223 225 226 227 228 230 234 239 241 244 253 267 278 286 293 300 306 310 313 314 317 319 318 318 318 321 324 328 329 330 332
276 275 274 273 268 262 257 252 246 242 240 240 241 241 239 237 235 235 238 241 241 240 239 234 228 221 218 224 225 224 228 225 222 222 218 218 221 221 223 226 227 227 228 228 226 225 225 225 224 223 221 222 222 222 226 230 232 234 234 235 234 236 243 248 250 251 256 268 279 288 295 303 307 309 311 315 316 316 315 316 318 321 324 326 327 328
272 272 274 273 267 263 261 258 254 248 244 242 241 241 239 238 236 233 234 237 236 235 237 234 226 220 221 227 226 223 224 224 224 224 221 219 221 224 226 227 227 227 226 228 229 227 226 226 227 227 226 227 228 227 228 232 236 236 238 239 239 240 245 254 261 261 259 263 273 282 291 299 303 305 308 312 313 313 313 314 316 319 321 323 324 326
269 271 270 267 267 269 269 265 261 256 251 246 244 243 242 241 239 236 233 234 233 232 235 235 226 218 221 227 229 227 223 222 225 227 226 225 225 227 229 229 228 229 227 228 230 230 230 229 229 229 228 229 231 230 231 234 236 237 239 241 243 244 248 253 261 265 264 264 269 278 287 295 298 300 304 309 310 310 310 312 315 317 318 320 322 323
265 267 266 265 268 272 273 269 264 261 258 254 249 245 243 241 239 236 233 232 232 231 233 236 229 218 220 226 230 231 227 223 222 227 229 228 228 228 229 231 231 231 232 231 231 231 231 232 232 230 230 231 233 234 234 236 238 240 242 244 246 248 250 252 257 261 265 267 269 275 283 289 294 297 300 305 308 308 308 311 314 315 317 318 319 321
264 263 263 267 270 270 270 269 268 265 262 260 257 252 246 242 239 237 235 234 233 231 232 236 233 224 221 225 230 232 232 228 221 223 229 228 229 229 228 229 231 233 235 235 233 232 232 233 234 233 233 234 236 238 239 240 242 244 245 246 248 251 253 253 255 259 263 268 272 275 279 285 289 292 297 302 305 306 307 309 312 314 314 315 317 319
262 261 264 269 269 267 266 266 269 272 269 265 263 259 253 247 244 242 239 238 237 234 232 234 236 233 227 226 229 231 233 233 226 222 227 229 230 231 230 229 227 229 235 236 236 234 233 233 234 235 236 237 239 240 240 241 242 245 248 249 249 253 256 256 257 260 264 270 274 276 278 281 285 289 294 298 301 304 306 307 310 311 312 314 315 317
263 262 264 267 267 265 266 268 271 274 274 269 263 262 259 255 250 245 240 238 237 235 232 231 233 235 233 229 230 230 230 233 231 226 226 229 229 231 233 232 227 225 229 234 235 235 234 234 234 237 238 239 240 241 241 241 242 245 248 249 250 253 256 258 261 265 267 271 275 277 279 280 283 287 290 295 299 302 304 305 308 309 311 312 314 316
262 261 263 265 266 266 268 274 274 271 269 267 264 263 263 260 256 250 244 239 237 235 233 231 230 232 234 233 232 231 230 230 231 230 229 228 228 229 232 234 232 228 227 230 233 233 233 234 234 236 239 240 241 242 243 243 244 247 248 249 251 254 255 258 262 266 269 272 276 278 280 281 283 284 287 292 296 300 302 303 305 307 309 311 313 314
261 262 263 264 265 267 272 273 269 264 264 265 265 264 264 263 261 257 251 245 241 238 235 233 230 229 232 234 233 232 231 230 229 229 231 230 228 229 231 234 235 234 231 231 232 233 234 234 234 235 237 240 242 243 244 245 246 248 249 250 253 255 255 257 261 265 267 270 273 276 279 281 281 283 286 290 294 297 300 301 302 305 308 310 311 313
261 261 261 261 264 267 269 267 264 263 265 266 266 266 265 265 265 263 261 255 247 241 238 236 232 230 231 234 235 234 233 233 231 229 230 231 230 229 231 233 235 237 236 235 234 234 235 236 236 236 236 238 242 244 245 245 246 247 248 252 255 255 256 259 262 265 266 267 268 272 275 278 279 281 285 288 291 295 298 299 300 302 305 308 310 312
259 258 259 261 264 266 265 265 267 269 268 268 269 269 268 268 268 267 263 260 254 246 240 237 234 232 233 235 235 234 234 234 234 232 230 231 232 232 232 233 234 237 239 238 237 236 235 237 238 237 237 239 242 245 246 246 247 247 248 251 253 255 257 260 264 266 268 269 269 270 271 274 278 280 283 285 289 293 295 297 298 301 303 306 309 311
259 259 260 262 263 264 265 267 269 270 271 274 274 270 268 266 263 261 259 258 257 253 247 240 235 233 235 236 234 232 232 233 235 235 234 232 232 233 234 235 235 237 239 239 238 237 236 236 238 239 239 240 241 244 247 248 249 249 249 250 252 254 257 260 263 266 268 270 271 270 270 273 278 281 283 284 287 291 294 296 298 300 302 305 308 311
260 260 260 260 261 264 267 269 272 273 275 275 270 265 263 261 255 252 254 255 255 256 253 246 238 233 234 236 235 232 232 233 234 235 235 234 232 232 233 234 235 237 240 239 238 237 236 235 237 239 240 240 240 242 245 248 249 250 251 251 253 255 257 260 263 265 267 269 271 271 273 275 279 282 284 285 287 290 293 296 297 299 301 305 308 310
260 260 261 261 263 266 269 271 271 269 267 265 263 261 262 263 259 252 252 255 256 257 256 253 245 239 236 236 237 235 233 233 234 234 235 235 233 232 232 233 234 236 239 240 239 239 238 236 236 238 240 241 240 240 243 246 248 251 252 253 254 256 259 261 263 265 266 268 270 272 274 277 279 282 284 285 287 290 293 295 297 299 302 305 307 309
260 260 261 262 264 267 269 269 267 265 265 265 264 262 262 265 265 259 253 257 259 256 256 256 251 245 241 239 238 238 236 235 235 234 234 235 235 233 232 232 234 235 237 239 240 242 243 241 239 239 240 242 242 241 242 244 246 250 252 254 256 258 259 261 263 265 267 268 270 272 274 276 279 281 283 284 288 290 293 295 298 300 303 304 306 307
257 258 259 261 262 264 265 265 265 265 266 267 265 263 262 264 267 267 261 255 253 253 254 255 252 249 246 242 240 240 239 236 236 235 234 235 236 236 234 233 233 235 236 238 240 243 245 246 245 243 242 243 244 243 244 245 247 249 251 253 256 257 259 261 263 265 267 269 270 272 274 276 279 281 282 285 288 291 293 296 299 301 303 304 305 306
254 255 257 258 258 260 260 261 262 263 264 265 264 264 263 263 266 269 267 255 247 249 251 252 253 253 251 247 243 242 243 240 238 236 235 234 236 237 237 237 236 236 237 239 240 242 245 246 247 247 247 246 246 246 246 247 248 250 251 253 256 257 259 261 263 266 268 270 271 273 275 277 280 282 283 286 289 292 295 297 299 301 302 303 304 305
254 255 256 256 255 256 256 257 258 260 262 263 263 263 262 263 264 266 267 261 251 246 245 248 253 255 254 253 248 244 246 245 243 240 238 236 236 237 239 240 240 239 239 240 241 242 244 246 246 247 249 249 250 250 249 250 250 252 252 254 256 258 259 260 263 266 268 271 272 273 275 278 280 283 285 288 290 292 294 296 298 299 300 302 303 303
255 255 255 255 255 254 254 255 256 258 261 261 261 261 262 262 263 263 266 267 262 251 244 244 249 251 252 253 252 248 248 249 249 245 242 239 237 236 237 240 242 242 241 241 242 244 245 245 246 247 248 249 249 251 252 252 254 255 255 256 258 259 260 261 263 265 267 269 271 272 276 279 282 284 286 288 290 291 293 295 297 297 299 300 301 301
255 254 254 254 254 254 254 253 254 255 257 258 259 261 262 262 262 263 264 266 265 260 251 243 243 246 246 248 253 254 252 252 253 251 247 244 240 237 236 238 240 242 243 243 243 245 246 246 246 246 247 248 248 249 251 253 255 256 257 258 259 260 262 263 264 265 267 269 271 274 277 280 283 285 285 286 288 291 293 295 295 296 297 298 299 300
254 254 253 253 253 254 253 252 251 250 252 256 261 263 262 262 261 261 261 261 261 261 258 249 243 243 243 245 252 257 257 255 255 255 253 249 245 241 238 238 239 239 241 242 242 243 245 247 247 246 246 247 248 249 250 252 255 257 258 258 259 262 264 265 265 267 269 271 273 276 278 280 282 284 284 285 289 291 293 293 294 294 296 296 297 298
254 254 253 252 253 253 252 251 250 248 250 257 261 261 260 260 259 258 257 257 257 258 258 255 247 243 244 246 249 255 259 258 257 256 254 251 248 244 240 239 239 238 238 239 241 241 243 245 247 248 247 247 247 248 249 250 253 255 257 258 260 262 264 265 267 269 271 273 275 276 277 279 281 282 283 285 288 290 290 291 292 293 294 295 296 297
254 253 252 252 251 251 251 250 249 250 252 255 255 256 259 259 258 256 254 253 254 256 258 258 251 245 245 246 249 255 259 259 258 257 256 253 251 248 244 241 241 241 240 240 241 242 243 244 245 247 249 249 248 248 249 249 250 252 255 258 259 261 263 264 267 271 273 274 275 276 278 279 281 282 284 285 286 288 289 289 290 291 292 293 294 295
253 253 252 252 251 251 251 250 250 252 253 251 249 252 255 256 256 257 255 254 254 256 258 259 257 253 251 249 251 256 261 262 262 261 259 257 254 251 248 244 243 243 242 241 242 243 244 245 246 247 248 249 250 251 251 250 250 251 254 256 259 260 262 264 267 270 272 273 274 276 278 279 281 283 284 285 286 287 287 288 289 290 290 290 292 294
251 251 252 252 251 251 251 251 251 252 250 248 247 248 250 253 256 257 256 255 255 255 255 257 258 259 258 254 251 255 262 265 265 265 264 261 257 254 250 247 245 244 242 241 241 242 242 243 245 246 247 247 249 250 252 253 253 253 254 255 258 260 262 264 267 269 271 272 274 276 278 279 281 283 284 286 286 286 285 285 287 287 288 289 291 292
249 250 250 251 251 251 251 251 250 250 249 249 248 246 247 250 253 256 257 256 255 255 254 254 256 259 260 257 255 258 262 263 265 267 267 264 261 258 254 250 247 246 244 241 241 241 242 242 244 245 246 246 247 249 251 252 254 255 255 256 257 260 262 264 266 268 270 272 274 276 277 278 280 281 282 283 284 282 282 283 285 286 286 288 289 291
247 248 249 249 250 250 250 251 251 251 250 249 247 245 245 246 249 252 255 255 255 255 255 255 256 258 257 256 257 259 261 262 263 265 264 263 261 259 257 254 251 248 247 244 242 242 242 242 243 245 246 246 248 249 249 251 252 254 255 256 258 259 261 263 265 267 269 271 273 274 275 276 276 277 279 280 280 279 280 283 284 285 286 287 288 290
244 245 247 247 248 249 250 250 251 251 250 248 245 243 243 244 246 248 251 253 255 256 256 255 256 257 255 255 256 257 258 260 261 262 261 260 258 258 259 259 258 255 253 250 247 244 243 242 243 244 246 246 248 249 249 250 250 251 253 254 256 258 259 261 264 266 268 269 270 271 272 272 273 275 276 277 277 278 280 282 283 284 285 286 288 289
241 243 244 245 246 247 249 249 249 250 249 248 246 244 243 243 245 247 250 253 255 255 256 256 256 257 255 254 254 256 257 257 259 259 260 258 257 256 257 259 260 261 259 257 253 250 247 245 244 245 245 246 246 247 248 249 250 251 251 252 254 256 258 260 262 265 266 267 268 268 270 271 273 274 275 276 276 278 280 281 282 284 285 286 287 289
239 240 242 243 244 246 248 248 248 248 248 248 247 247 246 246 247 248 251 253 254 254 256 256 256 256 255 254 255 256 256 256 256 256 257 257 256 255 254 255 257 259 261 262 261 258 255 251 247 246 246 246 245 246 247 249 250 251 251 252 254 256 258 260 261 262 263 265 266 268 270 272 274 275 276 277 278 279 279 280 281 282 283 284 286 287
237 238 240 241 242 244 246 247 246 246 247 247 247 248 249 249 249 249 250 251 252 253 253 254 255 255 255 256 256 256 254 254 254 254 255 254 254 254 254 254 255 256 259 261 262 263 262 259 254 250 248 248 248 248 249 250 251 252 252 252 253 255 257 258 259 260 262 264 266 269 271 272 274 275 276 277 277 278 278 279 280 281 282 283 284 286
234 235 237 239 240 242 244 246 246 245 245 246 247 248 249 250 250 250 250 250 250 251 251 252 254 255 256 256 255 254 254 253 252 253 252 251 250 251 253 254 254 254 255 257 259 260 262 262 261 258 256 255 254 252 252 252 251 252 253 253 254 255 256 257 258 261 263 264 266 268 270 272 273 274 275 275 275 276 277 278 279 280 281 282 283 284
230 232 234 235 237 239 241 244 245 245 244 245 246 248 249 251 251 250 250 250 250 250 251 252 253 254 255 255 255 254 254 254 254 253 252 251 250 249 250 251 252 252 253 254 255 257 259 260 262 262 262 260 258 256 255 253 252 252 252 253 254 254 254 255 257 258 260 262 263 265 267 269 270 271 272 273 274 275 276 277 278 278 279 280 282 283
225 228 231 232 234 236 238 240 242 242 242 243 245 247 248 249 250 250 250 250 250 250 250 251 252 252 253 254 255 255 255 256 256 254 252 250 249 247 246 247 249 250 250 251 252 254 257 260 262 264 263 262 260 258 257 255 254 252 251 250 250 250 251 253 254 255 257 258 261 265 268 269 268 269 271 273 274 274 274 275 276 277 278 279 281 283
221 224 227 229 232 234 236 237 238 240 238 236 238 242 244 245 246 248 249 249 249 249 250 250 250 251 251 252 254 256 256 256 255 252 249 248 248 246 244 243 245 246 247 248 249 252 255 259 262 263 264 264 262 260 258 256 253 251 249 247 246 248 250 252 253 257 260 261 264 271 278 277 272 270 271 272 273 273 273 274 275 276 276 278 280 283
218 220 223 226 229 232 234 235 236 239 238 234 233 237 241 242 242 243 246 248 248 248 249 249 249 250 251 252 254 256 257 256 253 250 247 246 245 245 244 242 242 243 244 246 248 251 254 257 260 261 262 263 262 261 259 256 253 249 248 248 248 249 250 249 248 253 261 264 267 275 283 283 277 274 276 277 275 272 272 274 274 274 275 278 281 282
214 217 220 223 226 229 232 231 230 230 231 231 231 233 237 239 238 237 240 244 246 247 248 250 251 252 253 254 255 255 255 255 252 248 246 245 245 245 244 242 241 241 243 246 248 251 253 256 258 259 260 262 262 260 257 255 253 250 248 249 250 250 250 247 243 245 254 262 267 275 282 284 281 281 283 282 278 274 273 271 270 273 278 280 280 280
212 214 217 219 222 226 229 229 227 225 224 224 226 229 233 236 237 236 239 243 246 248 251 252 252 253 252 252 253 253 252 252 250 247 246 245 245 245 244 243 242 242 243 245 247 249 252 253 255 256 258 259 258 256 254 252 250 247 244 243 244 245 245 244 241 240 247 257 263 269 274 278 280 283 281 277 276 274 270 266 269 276 280 279 279 282
210 212 215 217 219 223 227 229 228 226 224 223 226 229 232 237 239 238 238 241 244 246 248 250 250 250 249 248 248 249 249 249 248 247 245 243 243 243 243 243 242 241 242 243 244 246 249 251 253 254 254 254 254 252 249 245 243 239 233 231 235 239 242 242 237 231 236 247 253 258 264 269 274 273 267 264 262 260 259 265 272 276 277 279 284 287
Height
10948 10951 10950 10948 10949 10952 10955 10956 10956 10957 10961 10961 10961 10962 10963 10964 10964 10963 10963 10963 10964 10964 10964 10964 10964 10964 10963 10964 10965 10965 10965 10965 10965 10966 10966 10967 10967 10968 10969 10969 10970 10972 10972 10973 10975 10977 10978 10980 10981 10982 10983 10984 10985 10986 10987 10988 10989 10991 10992 10993 10995 10996 10997 10997 10998 10998 10998 10998 10998 10998 10997 10996 10996 10995 10995 10994 10994 10993 10992 10992 10991 10990 10990 10989 10988 10987
10943 10944 10941 10940 10943 10947 10950 10953 10954 10955 10958 10959 10958 10960 10961 10961 10961 10961 10961 10961 10962 10962 10963 10963 10963 10963 10963 10963 10964 10964 10964 10965 10965 10966 10966 10967 10967 10968 10969 10969 10970 10971 10972 10974 10975 10977 10979 10980 10981 10982 10983 10984 10985 10985 10986 10988 10989 10990 10991 10993 10994 10995 10996 10997 10998 10998 10998 10998 10998 10998 10998 10997 10996 10996 10995 10995 10994 10994 10993 10992 10991 10990 10990 10988 10987 10986
10936 10935 10933 10935 10939 10943 10946 10949 10951 10952 10955 10957 10956 10957 10958 10958 10959 10959 10959 10959 10960 10961 10962 10962 10962 10962 10962 10962 10963 10964 10964 10965 10966 10967 10967 10967 10968 10969 10970 10970 10970 10971 10973 10974 10976 10978 10979 10980 10981 10982 10982 10983 10984 10984 10985 10986 10988 10989 10990 10992 10993 10994 10996 10997 10997 10998 10998 10998 10998 10998 10998 10997 10997 10996 10996 10995 10995 10994 10993 10992 10991 10990 10989 10988 10987 10986
10928 10927 10928 10933 10936 10939 10942 10944 10947 10950 10952 10954 10953 10953 10953 10954 10956 10957 10957 10958 10959 10960 10961 10962 10962 10962 10962 10962 10963 10964 10965 10966 10967 10968 10968 10969 10969 10970 10971 10972 10972 10972 10974 10975 10977 10978 10979 10979 10980 10980 10981 10982 10982 10983 10984 10985 10986 10988 10989 10991 10992 10993 10995 10996 10997 10997 10998 10998 10998 10998 10998 10997 10997 10996 10996 10995 10995 10994 10993 10992 10991 10990 10989 10988 10987 10986
10921 10921 10924 10928 10931 10934 10936 10938 10942 10945 10947 10949 10950 10950 10949 10950 10952 10953 10955 10957 10958 10959 10960 10961 10962 10962 10963 10963 10964 10964 10965 10966 10967 10968 10969 10969 10970 10971 10971 10973 10973 10974 10975 10976 10978 10979 10979 10980 10980 10980 10981 10981 10982 10982 10983 10984 10986 10987 10988 10990 10991 10992 10994 10995 10996 10997 10997 10998 10998 10997 10997 10997 10996 10996 10995 10995 10994 10993 10993 10992 10991 10990 10989 10988 10987 10985
10914 10915 10919 10922 10925 10927 10930 10933 10936 10939 10942 10945 10946 10944 10943 10945 10948 10949 10952 10955 10957 10958 10958 10959 10961 10962 10963 10963 10964 10965 10965 10966 10967 10968 10968 10969 10970 10971 10971 10973 10974 10975 10975 10976 10978 10979 10980 10980 10981 10981 10981 10982 10982 10983 10984 10985 10986 10987 10988 10989 10991 10992 10993 10994 10995 10996 10997 10997 10997 10997 10997 10997 10996 10995 10995 10994 10994 10993 10992 10991 10990 10989 10988 10987 10986 10985
10907 10909 10913 10916 10918 10921 10925 10927 10929 10932 10937 10940 10940 10938 10939 10942 10943 10946 10949 10952 10955 10955 10955 10957 10960 10961 10962 10962 10963 10964 10965 10966 10966 10967 10968 10968 10969 10970 10971 10972 10974 10975 10975 10976 10977 10978 10979 10980 10981 10981 10981 10981 10982 10983 10984 10985 10986 10987 10988 10989 10990 10992 10993 10994 10994 10995 10996 10996 10996 10996 10996 10996 10996 10995 10994 10994 10993 10992 10991 10991 10990 10989 10988 10986 10985 10984
10903 10905 10907 10909 10912 10916 10919 10921 10921 10925 10932 10933 10930 10932 10936 10938 10939 10941 10945 10949 10952 10953 10954 10956 10957 10959 10961 10961 10962 10963 10964 10965 10965 10966 10967 10968 10969 10969 10970 10972 10973 10974 10974 10974 10976 10977 10978 10979 10980 10980 10981 10981 10982 10983 10984 10984 10985 10986 10988 10989 10990 10991 10992 10993 10994 10994 10995 10996 10996 10996 10995 10995 10995 10994 10993 10993 10993 10992 10990 10990 10989 10988 10987 10986 10984 10983
10900 10900 10901 10903 10907 10910 10912 10913 10914 10920 10926 10923 10922 10930 10934 10934 10935 10937 10941 10945 10949 10952 10953 10954 10955 10958 10959 10959 10961 10962 10963 10963 10963 10965 10966 10967 10968 10969 10970 10971 10972 10973 10973 10973 10974 10976 10977 10978 10979 10980 10981 10982 10983 10984 10985 10985 10986 10987 10987 10988 10989 10990 10991 10992 10993 10993 10994 10994 10995 10995 10994 10994 10994 10993 10993 10992 10991 10991 10989 10989 10988 10987 10986 10985 10984 10982
10895 10895 10898 10900 10901 10903 10904 10906 10909 10916 10919 10913 10915 10926 10929 10930 10932 10933 10938 10941 10944 10950 10953 10952 10954 10955 10956 10957 10960 10960 10960 10960 10961 10963 10965 10966 10967 10967 10969 10970 10970 10971 10972 10972 10974 10975 10976 10977 10978 10979 10980 10981 10982 10983 10984 10985 10986 10986 10987 10988 10988 10989 10990 10991 10991 10992 10993 10993 10993 10993 10993 10993 10992 10992 10991 10991 10990 10989 10988 10987 10987 10986 10985 10984 10983 10981
10890 10893 10895 10895 10894 10896 10898 10902 10905 10909 10911 10906 10910 10920 10924 10927 10928 10929 10934 10936 10941 10950 10951 10950 10951 10952 10954 10956 10957 10957 10956 10958 10960 10961 10962 10963 10965 10966 10967 10968 10969 10969 10970 10971 10972 10974 10975 10976 10977 10977 10979 10980 10981 10982 10982 10983 10984 10985 10986 10987 10987 10988 10988 10989 10990 10990 10991 10991 10991 10991 10991 10991 10991 10990 10990 10989 10988 10988 10987 10986 10985 10985 10984 10983 10981 10980
10887 10890 10890 10890 10891 10892 10893 10896 10899 10902 10903 10902 10906 10913 10917 10922 10924 10926 10930 10932 10939 10947 10947 10946 10947 10949 10952 10953 10953 10953 10954 10956 10957 10958 10960 10961 10963 10964 10965 10966 10967 10968 10968 10969 10970 10972 10974 10975 10976 10977 10978 10978 10979 10980 10981 10982 10983 10984 10984 10985 10986 10986 10986 10987 10987 10988 10988 10989 10989 10989 10989 10989 10989 10988 10988 10987 10987 10986 10985 10984 10984 10983 10982 10981 10980 10979
10883 10885 10885 10887 10887 10886 10887 10889 10891 10894 10896 10896 10899 10904 10909 10915 10919 10924 10927 10929 10935 10940 10940 10939 10942 10946 10949 10948 10949 10950 10950 10952 10954 10955 10957 10958 10959 10961 10962 10963 10964 10965 10966 10967 10968 10970 10972 10973 10975 10976 10976 10977 10978 10979 10980 10980 10981 10982 10983 10984 10984 10985 10985 10985 10985 10986 10986 10986 10987 10987 10987 10987 10986 10986 10986 10985 10985 10984 10983 10982 10982 10981 10981 10979 10978 10977
10878 10879 10881 10882 10881 10881 10883 10885 10886 10888 10890 10892 10894 10897 10902 10906 10912 10920 10923 10923 10928 10931 10930 10931 10936 10943 10945 10944 10944 10945 10946 10948 10950 10952 10954 10955 10956 10957 10958 10960 10961 10962 10964 10965 10966 10967 10969 10971 10973 10974 10974 10975 10976 10977 10978 10978 10979 10980 10981 10981 10982 10983 10983 10983 10984 10984 10984 10984 10984 10984 10984 10985 10984 10984 10983 10983 10983 10982 10981 10980 10980 10979 10978 10977 10976 10975
10873 10875 10875 10876 10876 10877 10880 10882 10882 10883 10885 10888 10889 10891 10896 10902 10909 10915 10915 10916 10920 10923 10923 10926 10934 10941 10942 10940 10939 10940 10944 10947 10949 10950 10952 10953 10954 10955 10956 10957 10958 10959 10961 10962 10963 10965 10966 10968 10970 10971 10972 10973 10973 10974 10976 10976 10977 10979 10979 10979 10980 10980 10981 10982 10982 10982 10982 10982 10981 10981 10982 10982 10981 10981 10981 10981 10980 10979 10979 10978 10978 10977 10976 10975 10974 10972
10868 10870 10868 10870 10873 10874 10877 10877 10876 10879 10881 10882 10883 10886 10892 10896 10899 10903 10906 10908 10911 10915 10919 10924 10932 10938 10938 10936 10936 10938 10941 10944 10947 10948 10949 10951 10951 10952 10953 10954 10955 10956 10957 10959 10960 10962 10964 10965 10967 10968 10969 10970 10971 10972 10973 10974 10975 10976 10977 10978 10978 10978 10978 10979 10980 10980 10979 10979 10979 10979 10979 10979 10979 10978 10978 10978 10978 10977 10976 10976 10975 10975 10974 10973 10972 10970
10864 10864 10861 10865 10870 10870 10871 10872 10872 10876 10877 10878 10880 10882 10885 10886 10887 10893 10900 10903 10905 10912 10919 10922 10926 10930 10933 10934 10935 10936 10938 10940 10943 10945 10946 10947 10948 10949 10950 10950 10951 10952 10953 10954 10956 10959 10961 10962 10963 10964 10966 10967 10968 10969 10971 10972 10973 10973 10974 10975 10976 10976 10976 10976 10977 10977 10977 10976 10976 10976 10976 10975 10975 10975 10975 10975 10975 10974 10973 10973 10973 10972 10971 10970 10969 10968
10858 10858 10856 10860 10865 10866 10865 10867 10869 10872 10874 10876 10876 10876 10876 10878 10883 10890 10896 10899 10903 10912 10918 10919 10920 10924 10928 10932 10932 10932 10934 10936 10939 10941 10942 10943 10944 10945 10946 10947 10949 10950 10950 10951 10952 10955 10958 10959 10960 10961 10962 10964 10965 10966 10967 10968 10969 10970 10971 10972 10973 10974 10974 10974 10974 10974 10974 10974 10974 10973 10973 10972 10972 10972 10972 10972 10972 10972 10971 10970 10969 10969 10968 10967 10966 10965
10851 10854 10853 10854 10859 10860 10860 10864 10867 10868 10870 10872 10871 10869 10869 10874 10878 10882 10887 10893 10898 10904 10909 10911 10914 10917 10922 10926 10926 10927 10930 10931 10933 10936 10937 10938 10939 10941 10941 10942 10945 10947 10947 10948 10949 10952 10954 10956 10957 10958 10959 10960 10961 10963 10964 10965 10965 10966 10968 10969 10970 10971 10971 10971 10971 10971 10971 10971 10971 10971 10970 10969 10969 10968 10968 10968 10969 10969 10968 10967 10966 10966 10965 10964 10963 10962
10843 10848 10849 10848 10850 10853 10857 10862 10864 10864 10864 10865 10866 10866 10866 10868 10871 10874 10879 10886 10890 10895 10900 10904 10908 10912 10916 10918 10918 10920 10923 10924 10927 10929 10931 10932 10934 10936 10937 10937 10940 10942 10944 10945 10946 10948 10950 10952 10953 10954 10955 10956 10958 10959 10960 10961 10962 10963 10965 10966 10966 10967 10968 10968 10968 10968 10968 10968 10968 10968 10967 10966 10966 10965 10965 10965 10965 10965 10965 10964 10963 10962 10962 10960 10959 10958
10835 10841 10844 10842 10842 10847 10854 10857 10858 10858 10858 10859 10862 10863 10863 10863 10865 10868 10874 10879 10884 10889 10894 10897 10902 10908 10910 10908 10910 10914 10916 10917 10920 10923 10925 10927 10929 10931 10932 10932 10934 10936 10938 10940 10941 10943 10945 10947 10948 10950 10951 10953 10954 10955 10956 10957 10959 10960 10961 10962 10963 10963 10964 10964 10965 10965 10965 10965 10965 10965 10964 10964 10963 10962 10962 10962 10962 10962 10962 10961 10960 10959 10958 10957 10956 10954
10827 10832 10836 10835 10837 10844 10848 10849 10851 10853 10854 10855 10856 10858 10860 10860 10861 10865 10870 10873 10876 10882 10886 10889 10897 10904 10904 10901 10904 10909 10910 10911 10914 10917 10919 10921 10923 10925 10927 10928 10929 10930 10932 10934 10936 10939 10941 10943 10944 10946 10947 10949 10950 10951 10952 10954 10955 10956 10957 10959 10959 10960 10960 10961 10961 10961 10961 10961 10961 10962 10961 10961 10960 10959 10959 10959 10959 10959 10958 10958 10957 10956 10955 10954 10953 10951
10816 10821 10827 10830 10832 10837 10839 10841 10844 10848 10850 10851 10852 10852 10854 10857 10859 10862 10864 10865 10866 10873 10878 10882 10891 10899 10898 10895 10898 10902 10904 10906 10907 10910 10914 10916 10919 10922 10923 10924 10925 10926 10927 10929 10932 10935 10937 10939 10940 10942 10944 10945 10946 10946 10948 10950 10951 10952 10954 10955 10956 10956 10957 10957 10957 10957 10957 10957 10958 10958 10958 10957 10957 10956 10956 10955 10955 10955 10955 10954 10953 10953 10952 10951 10950 10949
10803 10811 10821 10825 10825 10828 10832 10835 10838 10841 10843 10847 10849 10847 10846 10852 10855 10855 10857 10858 10859 10865 10869 10874 10886 10892 10887 10884 10888 10893 10896 10898 10900 10904 10908 10911 10914 10918 10919 10920 10922 10922 10922 10924 10927 10930 10932 10934 10936 10938 10940 10941 10942 10942 10944 10945 10947 10948 10950 10951 10952 10953 10954 10954 10954 10953 10953 10954 10954 10954 10954 10954 10953 10953 10953 10952 10952 10952 10951 10951 10950 10949 10948 10947 10947 10946
10794 10804 10812 10816 10818 10821 10825 10829 10833 10835 10838 10841 10843 10841 10840 10843 10847 10850 10852 10853 10856 10860 10861 10867 10878 10881 10875 10872 10877 10884 10888 10889 10892 10896 10899 10903 10908 10911 10913 10915 10917 10918 10917 10918 10921 10924 10926 10930 10932 10933 10935 10937 10938 10939 10940 10941 10942 10944 10945 10947 10948 10949 10950 10950 10950 10950 10950 10950 10950 10950 10950 10950 10950 10949 10949 10949 10948 10948 10948 10947 10946 10945 10944 10943 10942 10941
10788 10796 10801 10806 10813 10818 10820 10823 10826 10827 10829 10832 10834 10834 10834 10834 10839 10846 10847 10848 10854 10856 10855 10860 10869 10868 10866 10867 10871 10877 10880 10881 10883 10887 10891 10895 10899 10903 10907 10909 10911 10912 10912 10913 10916 10918 10920 10924 10927 10929 10931 10932 10933 10935 10937 10937 10938 10938 10940 10942 10943 10944 10945 10946 10946 10946 10946 10946 10946 10946 10946 10946 10946 10946 10945 10945 10945 10945 10944 10943 10942 10942 10941 10939 10938 10937
10780 10787 10792 10799 10806 10812 10814 10813 10814 10815 10819 10823 10826 10828 10828 10827 10831 10838 10843 10848 10852 10850 10850 10855 10858 10858 10861 10864 10865 10868 10871 10873 10875 10879 10883 10887 10891 10895 10899 10902 10904 10906 10907 10909 10911 10914 10915 10918 10922 10924 10926 10927 10928 10931 10932 10933 10933 10934 10935 10936 10937 10939 10940 10941 10941 10942 10942 10942 10942 10942 10942 10942 10942 10942 10941 10941 10941 10941 10940 10939 10938 10938 10937 10936 10934 10933
10770 10776 10786 10793 10795 10801 10804 10802 10802 10805 10811 10816 10819 10821 10823 10822 10822 10829 10839 10846 10844 10842 10847 10849 10848 10851 10856 10857 10858 10858 10859 10862 10865 10869 10876 10880 10884 10888 10892 10895 10897 10899 10902 10905 10908 10910 10910 10912 10916 10918 10920 10921 10923 10925 10927 10928 10929 10930 10930 10931 10932 10934 10935 10936 10937 10937 10938 10938 10938 10937 10937 10938 10938 10937 10936 10937 10937 10937 10936 10935 10935 10934 10933 10931 10930 10929
10758 10768 10779 10783 10785 10790 10792 10791 10792 10795 10801 10807 10810 10814 10817 10818 10818 10822 10830 10835 10835 10839 10845 10842 10840 10847 10850 10849 10853 10852 10849 10851 10856 10861 10869 10875 10878 10883 10886 10889 10892 10895 10899 10903 10905 10905 10905 10906 10910 10912 10914 10915 10917 10919 10921 10922 10923 10924 10925 10926 10927 10929 10931 10932 10933 10933 10934 10934 10934 10933 10933 10934 10934 10933 10932 10932 10933 10933 10932 10931 10931 10930 10928 10927 10925 10924
10747 10762 10767 10769 10774 10779 10780 10781 10782 10784 10790 10796 10801 10806 10810 10813 10815 10817 10819 10823 10828 10835 10839 10836 10836 10842 10842 10841 10846 10847 10844 10845 10849 10855 10863 10868 10873 10878 10882 10884 10887 10890 10894 10897 10899 10900 10900 10901 10904 10906 10907 10910 10912 10913 10915 10916 10917 10918 10920 10921 10922 10923 10925 10927 10929 10929 10929 10930 10929 10929 10929 10929 10929 10928 10927 10927 10928 10928 10928 10927 10927 10925 10924 10922 10920 10919
10734 10751 10754 10756 10761 10767 10772 10774 10772 10774 10780 10784 10789 10797 10803 10807 10810 10812 10812 10815 10820 10826 10830 10830 10833 10837 10835 10833 10838 10842 10843 10843 10843 10847 10853 10858 10865 10872 10876 10878 10880 10884 10887 10890 10892 10894 10894 10896 10898 10900 10902 10904 10905 10906 10908 10909 10911 10912 10914 10916 10917 10917 10919 10922 10925 10925 10924 10924 10925 10926 10925 10924 10923 10923 10922 10922 10923 10923 10923 10922 10922 10920 10919 10918 10916 10914
10720 10735 10741 10742 10746 10755 10765 10766 10764 10767 10767 10768 10779 10791 10796 10799 10803 10807 10808 10808 10811 10815 10818 10824 10830 10831 10828 10828 10833 10837 10840 10841 10840 10840 10844 10849 10855 10864 10870 10872 10875 10877 10879 10882 10885 10885 10886 10888 10891 10894 10896 10897 10898 10901 10902 10903 10905 10907 10909 10910 10911 10912 10914 10917 10920 10920 10919 10919 10920 10921 10921 10920 10919 10918 10917 10917 10918 10918 10918 10917 10916 10915 10914 10912 10911 10909
10703 10719 10726 10726 10731 10744 10752 10754 10757 10756 10749 10757 10778 10787 10786 10790 10796 10799 10800 10800 10801 10804 10809 10817 10823 10822 10822 10827 10832 10834 10835 10836 10835 10833 10836 10839 10844 10853 10860 10862 10865 10868 10870 10873 10875 10876 10877 10879 10882 10886 10889 10891 10893 10896 10897 10898 10900 10901 10902 10903 10905 10908 10910 10912 10913 10914 10915 10914 10915 10916 10915 10915 10914 10912 10912 10912 10912 10913 10913 10911 10910 10909 10907 10906 10905 10903
10684 10699 10708 10710 10718 10731 10737 10741 10743 10737 10740 10764 10779 10774 10773 10781 10786 10787 10790 10792 10793 10795 10801 10810 10814 10816 10820 10825 10829 10829 10828 10828 10827 10825 10826 10829 10833 10841 10848 10850 10852 10856 10860 10863 10865 10867 10870 10871 10873 10877 10881 10884 10887 10890 10891 10893 10895 10895 10895 10897 10900 10904 10905 10905 10906 10909 10910 10909 10909 10909 10909 10909 10908 10906 10906 10907 10907 10907 10907 10905 10904 10903 10902 10900 10898 10897
10664 10677 10688 10694 10703 10714 10721 10725 10722 10724 10746 10769 10769 10761 10765 10771 10771 10773 10778 10782 10785 10789 10796 10804 10809 10812 10817 10820 10823 10823 10820 10817 10817 10815 10816 10819 10825 10831 10837 10840 10841 10845 10851 10857 10859 10861 10864 10865 10866 10869 10873 10875 10879 10882 10884 10888 10890 10890 10890 10892 10894 10897 10899 10899 10900 10903 10903 10903 10902 10902 10901 10902 10901 10900 10900 10900 10901 10901 10900 10899 10898 10897 10896 10893 10891 10890
10646 10655 10668 10679 10688 10696 10704 10707 10709 10725 10750 10758 10755 10756 10758 10755 10756 10761 10766 10772 10780 10787 10793 10799 10803 10807 10811 10815 10816 10815 10811 10808 10807 10807 10807 10811 10817 10822 10828 10831 10833 10836 10842 10848 10851 10853 10856 10857 10859 10862 10866 10868 10870 10873 10877 10881 10884 10885 10886 10887 10888 10890 10892 10894 10895 10897 10896 10895 10895 10894 10894 10894 10894 10894 10893 10893 10894 10894 10893 10892 10891 10890 10889 10887 10885 10883
10631 10638 10649 10662 10671 10679 10688 10693 10702 10721 10736 10740 10747 10752 10746 10744 10748 10752 10756 10765 10775 10780 10786 10793 10797 10800 10804 10808 10809 10807 10804 10801 10799 10800 10802 10803 10806 10812 10818 10821 10823 10826 10831 10836 10838 10840 10843 10847 10849 10851 10856 10860 10861 10864 10868 10871 10875 10877 10880 10881 10882 10883 10885 10888 10890 10890 10889 10888 10887 10887 10887 10887 10887 10887 10885 10884 10885 10884 10883 10883 10883 10882 10881 10880 10878 10877
10617 10623 10633 10645 10655 10664 10672 10679 10690 10708 10721 10730 10741 10743 10738 10737 10740 10742 10748 10757 10764 10772 10781 10787 10791 10795 10798 10800 10801 10800 10797 10794 10794 10796 10797 10796 10796 10800 10805 10809 10812 10815 10818 10823 10827 10829 10833 10837 10839 10839 10843 10848 10851 10856 10859 10861 10864 10867 10870 10874 10876 10876 10878 10881 10883 10882 10882 10880 10879 10879 10879 10879 10879 10878 10876 10875 10875 10874 10874 10874 10874 10874 10874 10873 10871 10870
10605 10610 10619 10630 10641 10649 10657 10667 10680 10697 10713 10723 10728 10730 10729 10728 10730 10735 10740 10746 10756 10768 10776 10781 10785 10788 10790 10791 10793 10793 10790 10788 10790 10792 10792 10790 10789 10789 10792 10796 10801 10805 10808 10814 10818 10821 10825 10828 10829 10830 10834 10839 10843 10847 10850 10851 10852 10856 10860 10864 10867 10869 10872 10874 10874 10874 10874 10874 10871 10869 10869 10869 10868 10868 10867 10866 10865 10864 10864 10864 10865 10865 10866 10866 10864 10863
10591 10596 10605 10615 10625 10633 10643 10658 10671 10685 10698 10707 10710 10714 10719 10719 10722 10728 10731 10739 10754 10765 10768 10773 10776 10778 10780 10783 10785 10785 10785 10784 10786 10785 10785 10786 10785 10784 10783 10786 10791 10796 10801 10805 10809 10812 10815 10819 10821 10823 10827 10832 10835 10836 10837 10838 10840 10846 10852 10855 10857 10861 10865 10867 10867 10866 10866 10864 10861 10858 10857 10857 10857 10858 10858 10858 10856 10855 10856 10856 10855 10856 10858 10858 10857 10856
10576 10582 10588 10599 10611 10621 10630 10645 10660 10670 10680 10689 10694 10698 10706 10712 10718 10722 10726 10737 10751 10757 10758 10763 10766 10768 10772 10774 10775 10777 10779 10780 10780 10778 10778 10779 10781 10781 10781 10780 10782 10786 10790 10794 10798 10802 10806 10810 10814 10816 10818 10822 10824 10823 10824 10826 10830 10837 10843 10846 10849 10854 10858 10860 10859 10857 10855 10852 10850 10848 10847 10847 10849 10850 10849 10849 10850 10850 10849 10847 10846 10847 10850 10850 10849 10848
10564 10571 10577 10587 10603 10612 10617 10629 10646 10657 10665 10675 10681 10686 10696 10708 10715 10718 10724 10735 10744 10748 10750 10753 10756 10759 10762 10764 10766 10769 10771 10773 10773 10772 10772 10773 10775 10776 10777 10778 10778 10779 10780 10783 10786 10790 10795 10800 10806 10808 10808 10809 10811 10812 10815 10818 10822 10828 10835 10839 10842 10847 10851 10851 10849 10846 10844 10842 10841 10842 10842 10841 10841 10842 10841 10841 10842 10843 10841 10839 10838 10840 10841 10842 10841 10841
10552 10563 10570 10580 10594 10603 10606 10614 10630 10644 10654 10664 10671 10677 10688 10701 10710 10715 10721 10729 10735 10739 10741 10743 10746 10750 10752 10754 10757 10759 10761 10764 10765 10766 10766 10767 10769 10771 10772 10773 10775 10776 10775 10776 10776 10778 10781 10786 10792 10797 10798 10800 10803 10806 10810 10813 10817 10820 10825 10830 10836 10841 10842 10840 10836 10835 10836 10836 10836 10836 10837 10836 10835 10833 10833 10832 10832 10831 10831 10831 10831 10832 10833 10834 10833 10833
10542 10553 10562 10571 10583 10592 10594 10601 10616 10633 10647 10657 10664 10670 10680 10691 10702 10711 10716 10721 10725 10729 10731 10734 10737 10740 10743 10745 10746 10748 10751 10754 10756 10759 10760 10761 10763 10766 10767 10767 10769 10771 10771 10771 10770 10771 10772 10774 10778 10785 10789 10792 10796 10799 10803 10806 10809 10811 10814 10821 10829 10833 10831 10828 10828 10829 10830 10830 10830 10830 10830 10830 10828 10824 10822 10822 10821 10819 10819 10820 10822 10824 10825 10825 10825 10824
10532 10541 10551 10561 10571 10578 10585 10596 10609 10622 10637 10651 10659 10665 10675 10685 10696 10704 10708 10711 10715 10718 10721 10724 10727 10730 10733 10735 10736 10739 10742 10745 10749 10752 10754 10756 10758 10761 10762 10762 10762 10764 10765 10765 10765 10765 10765 10766 10769 10775 10780 10784 10786 10789 10792 10795 10798 10801 10805 10813 10819 10818 10816 10817 10819 10820 10819 10818 10820 10822 10823 10822 10819 10815 10811 10810 10810 10810 10809 10810 10812 10815 10816 10816 10816 10817
10522 10531 10541 10551 10559 10567 10580 10594 10603 10610 10627 10647 10656 10661 10670 10679 10686 10692 10696 10699 10704 10707 10710 10714 10717 10721 10723 10725 10726 10730 10733 10737 10742 10746 10748 10750 10751 10753 10755 10755 10756 10757 10758 10759 10759 10759 10760 10761 10764 10767 10771 10774 10777 10780 10782 10785 10788 10791 10795 10801 10802 10799 10800 10804 10806 10805 10806 10808 10810 10813 10815 10816 10813 10808 10804 10801 10801 10800 10799 10800 10803 10806 10807 10808 10809 10809
10516 10525 10533 10540 10549 10559 10571 10585 10597 10604 10620 10641 10651 10655 10662 10668 10673 10680 10684 10687 10692 10696 10699 10702 10706 10709 10712 10715 10717 10721 10725 10730 10734 10737 10740 10742 10743 10745 10746 10747 10748 10750 10751 10751 10752 10754 10755 10757 10759 10760 10762 10765 10768 10771 10773 10775 10778 10781 10784 10786 10786 10786 10787 10791 10794 10796 10800 10804 10805 10806 10810 10812 10808 10802 10797 10794 10792 10790 10790 10792 10795 10797 10798 10800 10801 10801
10508 10518 10525 10531 10541 10551 10561 10578 10596 10604 10614 10631 10643 10648 10652 10657 10664 10672 10675 10676 10679 10683 10686 10690 10694 10698 10702 10706 10709 10713 10717 10721 10725 10728 10731 10733 10735 10737 10738 10739 10741 10743 10743 10744 10746 10748 10749 10752 10754 10754 10754 10757 10760 10762 10763 10764 10767 10771 10773 10775 10778 10779 10778 10779 10783 10789 10796 10800 10799 10798 10802 10805 10803 10799 10794 10789 10784 10783 10783 10785 10787 10790 10791 10793 10793 10793
10500 10509 10517 10525 10535 10542 10552 10573 10592 10598 10604 10620 10635 10641 10644 10648 10656 10664 10666 10665 10667 10672 10676 10680 10685 10689 10694 10698 10702 10705 10709 10713 10717 10720 10723 10725 10727 10729 10730 10731 10734 10735 10736 10738 10740 10741 10744 10746 10747 10748 10749 10751 10752 10753 10754 10755 10757 10761 10764 10768 10771 10773 10772 10772 10774 10780 10788 10795 10795 10793 10794 10794 10796 10797 10791 10779 10773 10773 10775 10777 10781 10784 10785 10785 10785 10784
10494 10502 10509 10518 10528 10535 10544 10560 10577 10586 10596 10612 10625 10632 10636 10640 10649 10659 10662 10660 10662 10666 10670 10673 10677 10681 10685 10689 10693 10696 10700 10704 10708 10712 10714 10717 10719 10721 10723 10724 10726 10728 10730 10732 10734 10736 10738 10740 10741 10742 10743 10744 10744 10745 10746 10748 10751 10754 10758 10761 10763 10766 10768 10770 10768 10768 10777 10788 10797 10801 10798 10793 10795 10798 10790 10776 10769 10768 10769 10773 10777 10778 10777 10777 10777 10776
10489 10496 10503 10511 10520 10529 10538 10549 10561 10575 10592 10605 10615 10625 10633 10636 10642 10652 10656 10655 10657 10660 10664 10667 10670 10673 10676 10679 10683 10687 10691 10696 10700 10703 10705 10708 10711 10713 10715 10717 10718 10720 10723 10725 10728 10730 10732 10733 10734 10736 10737 10737 10737 10738 10741 10743 10746 10749 10752 10755 10758 10761 10766 10768 10766 10764 10767 10779 10795 10807 10808 10803 10804 10805 10798 10786 10778 10774 10771 10771 10771 10770 10769 10770 10770 10769